LNI102 WSSS-VTSP

Flight info

Callsign LNI102
Flight time N/A
Altitude 36000
Route AROSO3A AROSO Y513 KALIL Y501 RINBA Y502 DUBAX R325 URGAD URGAD1C
Aircraft B738/M-SDE2E3FGHIRWXY/LB1

Departure

Time 2026-05-06 16:29
Airport Singapore Changi Airport (WSSS)

Arrival

Time N/A
Airport Phuket International Airport (VTSP)
Time Latitude Longitude Altitude Speed Heading
2026-05-06 16:11 1.33651 103.98411 34 ft 0 kts 292°
2026-05-06 16:26 1.33649 103.98407 34 ft 1 kts 219°
2026-05-06 16:26 1.33643 103.98439 33 ft 10 kts 63°
2026-05-06 16:26 1.33643 103.98516 31 ft 12 kts 117°
2026-05-06 16:27 1.33617 103.98584 30 ft 10 kts 109°
2026-05-06 16:27 1.33594 103.98637 29 ft 7 kts 116°
2026-05-06 16:27 1.33585 103.98656 29 ft 0 kts 114°
2026-05-06 16:27 1.33584 103.98659 29 ft 0 kts 114°
2026-05-06 16:28 1.33576 103.98677 29 ft 9 kts 114°
2026-05-06 16:28 1.33553 103.98765 29 ft 14 kts 72°
2026-05-06 16:28 1.33640 103.98820 29 ft 21 kts 23°
2026-05-06 16:29 1.33928 103.98943 29 ft 83 kts 23°
2026-05-06 16:29 1.34570 103.99215 35 ft 140 kts 23°
2026-05-06 16:29 1.35508 103.99614 202 ft 171 kts 22°
2026-05-06 16:29 1.36574 104.00057 894 ft 175 kts 22°
2026-05-06 16:30 1.37603 104.00492 1530 ft 180 kts 23°
2026-05-06 16:30 1.38220 104.00754 1939 ft 179 kts 23°
2026-05-06 16:30 1.39762 104.01410 2759 ft 184 kts 23°
2026-05-06 16:30 1.40833 104.01865 3307 ft 188 kts 23°
2026-05-06 16:31 1.41943 104.02337 3939 ft 187 kts 23°
2026-05-06 16:31 1.43037 104.02801 4510 ft 189 kts 23°
2026-05-06 16:31 1.44183 104.03286 4987 ft 197 kts 23°
2026-05-06 16:31 1.45422 104.03803 5348 ft 214 kts 22°
2026-05-06 16:32 1.46725 104.04349 5719 ft 231 kts 23°
2026-05-06 16:32 1.48078 104.04864 6147 ft 244 kts 15°
2026-05-06 16:32 1.49683 104.05034 6544 ft 260 kts 352°
2026-05-06 16:32 1.51314 104.04489 7004 ft 272 kts 333°
2026-05-06 16:33 1.52937 104.03586 7635 ft 279 kts 329°
2026-05-06 16:33 1.54507 104.02664 8346 ft 283 kts 329°
2026-05-06 16:33 1.56007 104.01681 9040 ft 285 kts 318°
2026-05-06 16:34 1.58075 103.98766 10337 ft 291 kts 299°
2026-05-06 16:34 1.58994 103.97103 10715 ft 306 kts 298°
2026-05-06 16:34 1.59936 103.95365 11071 ft 320 kts 298°
2026-05-06 16:34 1.60933 103.93517 11430 ft 335 kts 298°
2026-05-06 16:35 1.62019 103.91501 11996 ft 343 kts 298°
2026-05-06 16:35 1.63107 103.89480 12716 ft 347 kts 298°
2026-05-06 16:35 1.64199 103.87450 13490 ft 348 kts 298°
2026-05-06 16:35 1.65289 103.85426 14194 ft 352 kts 298°
2026-05-06 16:36 1.66347 103.83461 14872 ft 356 kts 298°
2026-05-06 16:36 1.67247 103.81789 15438 ft 359 kts 298°
2026-05-06 16:36 1.68662 103.79160 16311 ft 364 kts 298°
2026-05-06 16:36 1.69843 103.76965 17008 ft 367 kts 298°
2026-05-06 16:37 1.71048 103.74726 17695 ft 371 kts 298°
2026-05-06 16:37 1.72285 103.72427 18377 ft 375 kts 298°
2026-05-06 16:37 1.73525 103.70122 19035 ft 379 kts 298°
2026-05-06 16:37 1.74779 103.67792 19680 ft 383 kts 298°
2026-05-06 16:38 1.76043 103.65440 20308 ft 386 kts 298°
2026-05-06 16:38 1.77336 103.63037 20927 ft 390 kts 298°
2026-05-06 16:38 1.78618 103.60653 21517 ft 393 kts 298°
2026-05-06 16:38 1.79916 103.58240 22095 ft 397 kts 298°
2026-05-06 16:39 1.81213 103.55828 22651 ft 400 kts 298°
2026-05-06 16:39 1.82546 103.53348 23203 ft 404 kts 298°
2026-05-06 16:39 1.83862 103.50899 23729 ft 407 kts 298°
2026-05-06 16:39 1.85206 103.48401 24247 ft 410 kts 298°
2026-05-06 16:40 1.86540 103.45918 24745 ft 413 kts 298°
2026-05-06 16:40 1.87890 103.43407 25232 ft 416 kts 298°
2026-05-06 16:40 1.89248 103.40879 25706 ft 419 kts 298°
2026-05-06 16:40 1.90576 103.38409 26154 ft 422 kts 298°
2026-05-06 16:41 1.91820 103.36093 26563 ft 425 kts 298°
2026-05-06 16:41 1.93043 103.33817 26953 ft 427 kts 298°
2026-05-06 16:41 1.94312 103.31454 27349 ft 430 kts 298°
2026-05-06 16:41 1.96003 103.28307 27860 ft 434 kts 298°
2026-05-06 16:42 1.97582 103.25366 28320 ft 437 kts 298°
2026-05-06 16:42 1.99008 103.22711 28722 ft 439 kts 298°
2026-05-06 16:42 2.00493 103.19947 29130 ft 442 kts 298°
2026-05-06 16:42 2.01897 103.17333 29504 ft 445 kts 298°
2026-05-06 16:43 2.03373 103.14583 29898 ft 447 kts 298°
2026-05-06 16:43 2.04812 103.11902 30503 ft 443 kts 298°
2026-05-06 16:43 2.06305 103.09119 31015 ft 442 kts 298°
2026-05-06 16:43 2.07757 103.06414 31507 ft 441 kts 298°
2026-05-06 16:44 2.09224 103.03680 31988 ft 440 kts 298°
2026-05-06 16:44 2.10703 103.00925 32451 ft 439 kts 298°
2026-05-06 16:44 2.12172 102.98186 32893 ft 438 kts 298°
2026-05-06 16:44 2.13628 102.95471 33318 ft 437 kts 298°
2026-05-06 16:45 2.15085 102.92755 33730 ft 436 kts 298°
2026-05-06 16:45 2.16545 102.90033 34130 ft 435 kts 298°
2026-05-06 16:45 2.17990 102.87336 34518 ft 435 kts 298°
2026-05-06 16:45 2.19422 102.84666 34889 ft 434 kts 298°
2026-05-06 16:46 2.20877 102.81951 35255 ft 433 kts 298°
2026-05-06 16:46 2.22323 102.79253 35607 ft 432 kts 298°
2026-05-06 16:46 2.23760 102.76572 35938 ft 432 kts 298°
2026-05-06 16:47 2.26653 102.71174 36001 ft 442 kts 298°
2026-05-06 16:47 2.29452 102.65949 36002 ft 453 kts 298°
2026-05-06 16:48 2.32247 102.60731 36001 ft 460 kts 298°
2026-05-06 16:48 2.35089 102.55424 36001 ft 459 kts 298°
2026-05-06 16:49 2.37853 102.50262 36001 ft 458 kts 298°
2026-05-06 16:49 2.40622 102.45089 36001 ft 459 kts 298°
2026-05-06 16:50 2.43436 102.39494 36001 ft 459 kts 294°
2026-05-06 16:50 2.46216 102.33699 35997 ft 458 kts 302°
2026-05-06 16:51 2.50506 102.29060 36005 ft 459 kts 320°
2026-05-06 16:51 2.55590 102.25112 36000 ft 459 kts 323°
2026-05-06 16:52 2.60332 102.21584 36001 ft 459 kts 323°
2026-05-06 16:52 2.64987 102.18072 36001 ft 461 kts 322°
2026-05-06 16:53 2.70172 102.14092 36000 ft 465 kts 322°
2026-05-06 16:53 2.75100 102.10260 36001 ft 465 kts 322°
2026-05-06 16:54 2.79927 102.06484 36001 ft 464 kts 322°
2026-05-06 16:54 2.84876 102.02603 36001 ft 464 kts 322°
2026-05-06 16:55 2.90105 101.98498 36001 ft 464 kts 322°
2026-05-06 16:55 2.95387 101.94349 36001 ft 464 kts 322°
2026-05-06 16:56 3.00522 101.90316 36001 ft 464 kts 322°
2026-05-06 16:56 3.05534 101.86378 36001 ft 464 kts 322°
2026-05-06 16:57 3.10609 101.82391 36001 ft 464 kts 322°
2026-05-06 16:57 3.15593 101.78475 36001 ft 464 kts 322°
2026-05-06 16:58 3.20573 101.74561 36001 ft 464 kts 322°
2026-05-06 16:58 3.25610 101.70603 36001 ft 464 kts 322°
2026-05-06 16:59 3.30626 101.66696 36001 ft 464 kts 323°
2026-05-06 16:59 3.36093 101.63212 36001 ft 464 kts 332°
2026-05-06 17:00 3.41843 101.60525 36001 ft 464 kts 336°
2026-05-06 17:00 3.47656 101.58041 36000 ft 464 kts 337°
2026-05-06 17:01 3.53403 101.55584 36001 ft 464 kts 336°
2026-05-06 17:01 3.59388 101.52986 36001 ft 464 kts 336°
2026-05-06 17:02 3.65336 101.50369 36001 ft 464 kts 336°
2026-05-06 17:02 3.71331 101.47714 36001 ft 464 kts 336°
2026-05-06 17:03 3.77307 101.45058 36001 ft 464 kts 336°
2026-05-06 17:03 3.82704 101.42657 36001 ft 464 kts 336°
2026-05-06 17:04 3.88200 101.40210 36001 ft 464 kts 336°
2026-05-06 17:04 3.93704 101.37762 36001 ft 464 kts 336°
2026-05-06 17:05 3.99496 101.35186 36001 ft 464 kts 336°
2026-05-06 17:05 4.05288 101.32610 36001 ft 464 kts 336°
2026-05-06 17:06 4.10830 101.30144 36001 ft 464 kts 336°
2026-05-06 17:06 4.16337 101.27692 36001 ft 464 kts 336°
2026-05-06 17:07 4.21646 101.25330 36001 ft 464 kts 336°
2026-05-06 17:07 4.26848 101.23014 36001 ft 464 kts 336°
2026-05-06 17:08 4.31974 101.20731 36001 ft 464 kts 336°
2026-05-06 17:08 4.37647 101.18205 36001 ft 464 kts 336°
2026-05-06 17:09 4.43406 101.15641 36001 ft 464 kts 336°
2026-05-06 17:09 4.49293 101.13018 36001 ft 464 kts 336°
2026-05-06 17:10 4.55200 101.10387 36001 ft 464 kts 336°
2026-05-06 17:10 4.61147 101.07758 36001 ft 464 kts 336°
2026-05-06 17:11 4.66979 101.05241 36000 ft 464 kts 336°
2026-05-06 17:11 4.72883 101.02708 36000 ft 464 kts 336°
2026-05-06 17:12 4.78806 101.00164 36001 ft 464 kts 336°
2026-05-06 17:12 4.84671 100.97639 36001 ft 464 kts 336°
2026-05-06 17:13 4.90529 100.95114 36001 ft 464 kts 336°
2026-05-06 17:13 4.96556 100.92514 36001 ft 464 kts 336°
2026-05-06 17:14 5.02488 100.89954 36001 ft 464 kts 336°
2026-05-06 17:14 5.08478 100.87367 36001 ft 464 kts 336°
2026-05-06 17:15 5.14376 100.84820 36001 ft 464 kts 336°
2026-05-06 17:15 5.20204 100.82302 36001 ft 464 kts 336°
2026-05-06 17:16 5.26229 100.79700 36001 ft 464 kts 336°
2026-05-06 17:16 5.32200 100.77119 36001 ft 464 kts 336°
2026-05-06 17:17 5.38112 100.74501 36001 ft 464 kts 334°
2026-05-06 17:17 5.43956 100.71371 36001 ft 464 kts 330°
2026-05-06 17:18 5.49426 100.68203 36001 ft 464 kts 329°
2026-05-06 17:18 5.54647 100.65170 36001 ft 464 kts 330°
2026-05-06 17:19 5.59767 100.62227 36001 ft 464 kts 330°
2026-05-06 17:19 5.64005 100.59809 36001 ft 464 kts 330°
2026-05-06 17:20 5.73626 100.54353 36001 ft 464 kts 330°
2026-05-06 17:21 5.78975 100.51322 36001 ft 464 kts 330°
2026-05-06 17:21 5.83728 100.48537 36001 ft 464 kts 329°